| time (UTC) | temp F | wind direction | speed knots | gust knots | rain 1hr in | rain 24hr in | rain mn in | humidity % | barometer mb |
| 20260504001512 | 55 | 236 | 1.7 | 5.2 | 0.00 | 0.00 | 0.00 | 50 | 1010.6 |
| 20260504000012 | 56 | 286 | 1.7 | 7.8 | 0.00 | 0.00 | 0.00 | 49 | 1010.7 |
| 20260503234521 | 57 | 284 | 5.2 | 13.0 | 0.00 | 0.00 | 0.00 | 48 | 1010.7 |
| 20260503233009 | 58 | 231 | 6.1 | 12.2 | 0.00 | 0.00 | 0.00 | 47 | 1010.8 |
| 20260503231509 | 58 | 244 | 3.5 | 10.4 | 0.00 | 0.00 | 0.00 | 47 | 1010.9 |
| 20260503230011 | 57 | 242 | 4.3 | 15.6 | 0.00 | 0.00 | 0.00 | 48 | 1011.0 |
| 20260503224510 | 57 | 240 | 4.3 | 13.9 | 0.00 | 0.00 | 0.00 | 48 | 1011.1 |
| 20260503223007 | 57 | 256 | 2.6 | 13.0 | 0.00 | 0.00 | 0.00 | 49 | 1011.2 |
| 20260503221505 | 57 | 259 | 3.5 | 12.2 | 0.00 | 0.00 | 0.00 | 48 | 1011.2 |
| 20260503220020 | 58 | 270 | 6.1 | 12.2 | 0.00 | 0.00 | 0.00 | 47 | 1011.2 |
| 20260503214502 | 58 | 201 | 5.2 | 13.0 | 0.00 | 0.00 | 0.00 | 48 | 1011.3 |
| 20260503213004 | 58 | 215 | 8.7 | 15.6 | 0.00 | 0.00 | 0.00 | 47 | 1011.3 |
| 20260503211501 | 57 | 207 | 5.2 | 15.6 | 0.00 | 0.00 | 0.00 | 48 | 1011.4 |
| 20260503210001 | 58 | 236 | 7.0 | 13.0 | 0.00 | 0.00 | 0.00 | 46 | 1011.4 |
| 20260503204559 | 58 | 232 | 1.7 | 19.1 | 0.00 | 0.00 | 0.00 | 47 | 1011.4 |
| 20260503203104 | 58 | 298 | 5.2 | 12.2 | 0.00 | 0.00 | 0.00 | 48 | 1011.4 |
| 20260503201558 | 59 | 261 | 5.2 | 13.9 | 0.00 | 0.00 | 0.00 | 46 | 1011.7 |
| 20260503200058 | 59 | 273 | 7.8 | 16.5 | 0.00 | 0.00 | 0.00 | 46 | 1011.8 |
| 20260503194553 | 58 | 244 | 4.3 | 11.3 | 0.00 | 0.00 | 0.00 | 48 | 1012.2 |
| 20260503193054 | 58 | 296 | 5.2 | 13.9 | 0.00 | 0.00 | 0.00 | 48 | 1012.5 |
| 20260503191550 | 59 | 269 | 6.1 | 15.6 | 0.00 | 0.00 | 0.00 | 47 | 1012.8 |
| 20260503190055 | 57 | 275 | 2.6 | 14.8 | 0.00 | 0.00 | 0.00 | 53 | 1012.9 |
| 20260503184555 | 58 | 234 | 7.0 | 13.9 | 0.00 | 0.00 | 0.00 | 47 | 1013.2 |
| 20260503183054 | 57 | 216 | 5.2 | 13.0 | 0.00 | 0.00 | 0.00 | 46 | 1013.4 |
| 20260503181541 | 57 | 281 | 3.5 | 12.2 | 0.00 | 0.00 | 0.00 | 50 | 1013.5 |
| 20260503180040 | 57 | 265 | 7.0 | 13.0 | 0.00 | 0.00 | 0.00 | 48 | 1013.6 |
| 20260503174536 | 56 | 221 | 6.1 | 15.6 | 0.00 | 0.00 | 0.00 | 52 | 1013.7 |
| 20260503173034 | 56 | 259 | 5.2 | 13.0 | 0.00 | 0.00 | 0.00 | 53 | 1013.9 |
| 20260503171532 | 55 | 298 | 5.2 | 15.6 | 0.00 | 0.00 | 0.00 | 53 | 1014.2 |
| 20260503081512 | 35 | 286 | 0.0 | 0.0 | 0.00 | 0.05 | 0.00 | 91 | 1015.4 |
| 20260503071508 | 36 | 288 | 0.0 | 0.0 | 0.00 | 0.07 | 0.00 | 91 | 1015.3 |
| 20260503060104 | 36 | 291 | 0.0 | 0.0 | 0.00 | 0.07 | 0.00 | 92 | 1015.6 |
| 20260503054604 | 36 | 291 | 0.0 | 0.0 | 0.00 | 0.10 | 0.00 | 91 | 1015.6 |
| 20260503053057 | 36 | 291 | 0.0 | 0.0 | 0.00 | 0.10 | 0.00 | 91 | 1015.6 |
| 20260503051557 | 37 | 291 | 0.0 | 0.0 | 0.00 | 0.10 | 0.00 | 90 | 1015.6 |
| 20260503050054 | 37 | 291 | 0.0 | 0.0 | 0.00 | 0.10 | 0.00 | 89 | 1015.7 |
| 20260503044553 | 38 | 291 | 0.0 | 0.0 | 0.00 | 0.17 | 0.00 | 87 | 1015.8 |
| 20260503043048 | 38 | 291 | 0.0 | 0.0 | 0.00 | 0.17 | 0.00 | 86 | 1015.7 |
| 20260503041548 | 39 | 291 | 0.0 | 0.0 | 0.00 | 0.17 | 0.00 | 84 | 1015.9 |
| 20260503040048 | 39 | 292 | 0.0 | 2.6 | 0.00 | 0.17 | 0.00 | 84 | 1015.9 |
| 20260503034549 | 39 | 360 | 0.0 | 0.0 | 0.00 | 0.18 | 0.17 | 85 | 1015.9 |
| 20260503033059 | 39 | 360 | 0.0 | 0.0 | 0.00 | 0.18 | 0.17 | 85 | 1016.0 |
| 20260503031553 | 39 | 360 | 0.0 | 0.0 | 0.00 | 0.18 | 0.17 | 84 | 1016.1 |
| 20260503030042 | 39 | 360 | 0.0 | 0.0 | 0.00 | 0.18 | 0.17 | 84 | 1016.1 |
| 20260503024552 | 39 | 360 | 0.0 | 0.0 | 0.00 | 0.18 | 0.17 | 83 | 1016.2 |
| 20260503023042 | 39 | 360 | 0.0 | 0.0 | 0.00 | 0.18 | 0.17 | 84 | 1016.4 |
| 20260503021541 | 39 | 360 | 0.0 | 0.0 | 0.00 | 0.18 | 0.17 | 84 | 1016.3 |
| 20260503020046 | 39 | 360 | 0.0 | 0.0 | 0.00 | 0.18 | 0.17 | 85 | 1016.3 |
| 20260503014543 | 39 | 360 | 0.0 | 0.0 | 0.00 | 0.18 | 0.17 | 84 | 1016.3 |
| 20260503013040 | 39 | 360 | 0.0 | 0.0 | 0.00 | 0.18 | 0.17 | 84 | 1016.2 |
| 20260503011543 | 39 | 360 | 0.0 | 0.0 | 0.00 | 0.18 | 0.17 | 84 | 1016.2 |
| 20260503010039 | 40 | 360 | 0.0 | 0.0 | 0.00 | 0.18 | 0.17 | 81 | 1016.2 |
| 20260503004543 | 40 | 360 | 0.0 | 0.0 | 0.00 | 0.18 | 0.17 | 77 | 1016.0 |
| 20260503003038 | 41 | 360 | 0.0 | 0.0 | 0.00 | 0.18 | 0.17 | 75 | 1016.0 |